Regional Weather Roundup
Issued by NWS Albany, NY

Home | Current Version | Previous Version | Graphics & Text | Print | Product List | Glossary Off
Versions: 1 2 3 4 5 6 7 8 9 10 11 12 13 14 15 16 17 18 19 20 21 22 23 24 25 26 27 28 29 30 31 32 33 34 35 36 37 38 39 40 41 42 43 44 45 46 47 48 49 50

952
ASUS41 KALY 250710
RWRALY

NEW YORK STATE HOURLY WEATHER ROUNDUP
NATIONAL WEATHER SERVICE ALBANY NY
300 AM EDT TUE APR 25 2017

NOTE: "FAIR" INDICATES FEW OR NO CLOUDS BELOW 12,000 FEET WITH NO
SIGNIFICANT WEATHER AND/OR NO OBSTRUCTIONS TO VISIBILITY.

NYZ032-033-038>043-046>054-057>066-NYZ062>081-082-084-250800-
EAST


CITY           SKY/WX    TMP DP  RH WIND       PRES   REMARKS
ALBANY         CLOUDY    46  30  53 N8        30.16F
GLENS FALLS    CLOUDY    40  29  64 N5        30.18F
POUGHKEEPSIE   CLOUDY    53  34  48 NE5       30.11F
NEWBURGH       MOCLDY    54  37  54 E9        30.12F
MONTGOMERY     CLOUDY    54  35  48 NE5       30.10F
WHITE PLAINS   CLOUDY    49  47  93 E10       30.09F
ISLIP          LGT RAIN  51  50  96 NE8       30.09F
NEW YORK CITY  CLOUDY    50  46  86 NE16      30.08F
CENTRAL PARK   CLOUDY    50  47  89 E12G17    30.11F
$$

NYZ005>009-017-018-044>046-055-056-250800-
CENTRAL


CITY           SKY/WX    TMP DP  RH WIND       PRES   REMARKS
FULTON         CLOUDY    50  38  63 E3        30.06F
SYRACUSE       CLOUDY    51  40  65 NE8       30.05F
ROME           CLOUDY    48  39  71 SE6       30.11F
ELMIRA         CLOUDY    53  45  74 NE3       30.02F
BINGHAMTON     CLOUDY    53  32  44 E9        30.05F
MONTICELLO     CLOUDY    52  28  40 E9G17     30.10F
$$

NYZ026>034-041>043-087-250800-
NORTH


CITY           SKY/WX    TMP DP  RH WIND       PRES   REMARKS
WATERTOWN      CLEAR     40  33  76 NE9       30.09F WCI  34
FORT DRUM      NOT AVBL
OGDENSBURG     FAIR      40  26  55 E8        30.16S
MASSENA        CLOUDY    41  22  46 NE15      30.20F
SARANAC LAKE   CLOUDY    35  22  58 CALM      30.14F
PLATTSBURGH    PTCLDY    34  25  69 CALM      30.22S
$$

NYZ001>004-010>016-019>021-085-250800-
WEST


CITY           SKY/WX    TMP DP  RH WIND       PRES   REMARKS
NIAGARA FALLS  CLOUDY    44  35  70 E5        30.00F
BUFFALO        CLOUDY    47  36  65 E7        30.00F
DUNKIRK        CLOUDY    51  43  74 E8        29.97F
JAMESTOWN      CLOUDY    52  39  62 SE7       29.96F
WELLSVILLE     CLOUDY    52  40  63 SE7       30.01F
ROCHESTER      CLOUDY    45  36  70 E3        30.03F
PENN YAN       CLOUDY    48  41  76 CALM      30.03F
$$

             KEY
       WCI = WIND CHILL INDEX
       VSB = VISIBILITY
       HX  = HEAT INDEX
$$




USA.gov is the U.S. government's official web portal to all federal, state and local government web resources and services.